User: anonymous   Login
Location: Pensacola
(30.4142°N, 87.2155°W)
Time: 06:19:39
(UTC-05:00)
Language:

DIWATA 2B (PO-101) - Orbit

View from above orbital plane
View from above orbital plane
View from above satellite
View from above satellite

Ground track
Ground track

The orbit data is extracted from the following two-line orbital elements,

1 43678U 18084H   23156.19536051  .00001324  00000-0  13181-3 0  9993
2 43678  98.0214 299.9245 0009236 193.5171 166.5802 14.93387481250475
Epoch (UTC): 05 June 2023 04:41:19
Eccentricity: 0.0009236
inclination: 98.0214°
perigee height: 581 km
apogee height: 594 km
right ascension of ascending node: 299.9245°
argument of perigee: 193.5171°
revolutions per day: 14.93387481
mean anomaly at epoch: 166.5802°
orbit number at epoch: 25047

The dashed part of the orbit path shows where the satellite is in the earth's shadow,  

DLR